Location: Austin
(30.3000°N, 97.7500°W)
Time: 23:44:09
(UTC-05:00)

NOSS 0 Rocket - Pass Details

Date: 05 September 2024
Orbit: 933 x 955 km, 70.0° (Epoch: 14 September)

Event Time Altitude Azimuth Distance (km) Brightness Sun altitude
Rises 21:33:34 0° 186° (S) 3,604 6.8 -22.8°
Enters shadow 21:36:06 10° 181° (S) 2,681 6.1 -23.3°
Exits shadow 21:43:50 41° 61° (ENE) 1,358 4.4 -24.8°
Drops below altitude 10° 21:48:08 10° 32° (NNE) 2,684 6.2 -25.7°
Sets 21:50:44 0° 28° (NNE) 3,633 7.0 -26.2°
